Weather History for Danville, IL

Change the Weather History Date:

Friday, February 21, 2014

  Actual Average (KLAF) Record (KLAF)
Temperature  
Mean Temperature 36 °F 32 °F  
Max Temperature 41 °F 41 °F 66 °F (1997)
Min Temperature 32 °F 24 °F 1 °F (1968)
Degree Days  
Heating Degree Days 28 33  
Month to date heating degree days 745  
Since 1 July heating degree days 4113  
Cooling Degree Days 0 0  
Month to date cooling degree days 0  
Year to date cooling degree days 0  
Moisture  
Dew Point 26 °F    
Average Humidity 69    
Maximum Humidity 81    
Minimum Humidity 49    
Precipitation  
Precipitation 0.00 in 0.07 in 0.83 in (2011)
Month to date precipitation 1.24  
Year to date precipitation 3.10  
Sea Level Pressure  
Sea Level Pressure 29.73 in    
Wind  
Wind Speed 20 mph (SW)    
Max Wind Speed 33 mph    
Max Gust Speed 44 mph    
Visibility 10 miles    
Events      
T = Trace of Precipitation, MM = Missing Value Source: NWS Daily Summary

Daily Weather History Graph

Daily Weather History Graph

Search for Another Location

Airport:

Trip Planner

Search our weather history database for the weather conditions in past years. The results will help you decide how hot, cold, wet, or windy it might be!

Date:

Astronomy

Feb. 21, 2014 Rise Set
Actual Time 6:35 AM CST 5:33 PM CST
Civil Twilight 6:07 AM CST 6:00 PM CST
Nautical Twilight 5:36 AM CST 6:32 PM CST
Astronomical Twilight 5:04 AM CST 7:03 PM CST
Moon No Moon Rise 9:58 AM CST (2/21)
Length of Visible Light 11h 52m
Length of Day
10h 57m
Waning Gibbous, 60% of the Moon is Illuminated
Feb 21
Waning Gibbous
Feb 22
Last Quarter
Mar 1
New
Mar 8
First Quarter
Mar 16
Full

Hourly Weather History & Observations

Time (CST) Temp. Windchill Dew Point Humidity Pressure Visibility Wind Dir Wind Speed Gust Speed Precip Events Conditions
12:15 AM 34.9 °F 23.9 °F 29.7 °F 81% 29.55 in 10.0 mi WSW 19.6 mph 28.8 mph N/A   Clear
12:35 AM 34.7 °F 24.0 °F 29.3 °F 81% 29.54 in 10.0 mi SW 18.4 mph 25.3 mph N/A   Clear
12:55 AM 34.7 °F 23.4 °F 29.3 °F 81% 29.55 in 10.0 mi SW 20.7 mph 27.6 mph N/A   Clear
1:15 AM 34.5 °F 23.8 °F 29.1 °F 81% 29.56 in 10.0 mi SW 18.4 mph - N/A   Clear
1:35 AM 35.1 °F 24.1 °F 29.3 °F 80% 29.57 in 10.0 mi WSW 19.6 mph 33.4 mph N/A   Clear
1:55 AM 34.9 °F 22.5 °F 29.5 °F 81% 29.58 in 10.0 mi SW 25.3 mph 31.1 mph N/A   Clear
2:15 AM 35.1 °F 23.3 °F 29.1 °F 79% 29.58 in 10.0 mi SW 23.0 mph 33.4 mph N/A   Clear
2:35 AM 35.1 °F 24.8 °F 29.1 °F 79% 29.59 in 10.0 mi SW 17.3 mph 29.9 mph N/A   Clear
2:55 AM 34.9 °F 24.2 °F 28.9 °F 79% 29.58 in 10.0 mi SW 18.4 mph 28.8 mph N/A   Clear
3:15 AM 34.9 °F 23.0 °F 29.1 °F 79% 29.58 in 10.0 mi SW 23.0 mph 28.8 mph N/A   Mostly Cloudy
3:35 AM 35.6 °F 24.0 °F 28.4 °F 75% 29.58 in 10.0 mi SW 23.0 mph 31.1 mph N/A   Overcast
3:55 AM 35.6 °F 23.4 °F 28.2 °F 75% 29.59 in 10.0 mi SW 25.3 mph 33.4 mph N/A   Overcast
4:15 AM 35.2 °F 22.7 °F 27.5 °F 73% 29.59 in 10.0 mi WSW 26.5 mph 33.4 mph N/A   Overcast
4:35 AM 35.2 °F 24.1 °F 28.2 °F 76% 29.60 in 10.0 mi WSW 20.7 mph 29.9 mph N/A   Overcast
4:55 AM 34.7 °F 23.4 °F 28.4 °F 78% 29.61 in 10.0 mi SW 20.7 mph 31.1 mph N/A   Overcast
5:15 AM 34.2 °F 23.3 °F 28.4 °F 79% 29.62 in 10.0 mi WSW 18.4 mph 27.6 mph N/A   Overcast
5:35 AM 34.0 °F 22.7 °F 28.8 °F 81% 29.63 in 10.0 mi WSW 19.6 mph 29.9 mph N/A   Overcast
5:55 AM 33.8 °F 20.5 °F 26.2 °F 74% 29.63 in 10.0 mi WSW 27.6 mph 36.8 mph N/A   Overcast
6:15 AM 33.3 °F 20.6 °F 25.7 °F 74% 29.64 in 10.0 mi WSW 24.2 mph 35.7 mph N/A   Overcast
6:35 AM 33.1 °F 19.3 °F 26.2 °F 76% 29.65 in 10.0 mi WSW 28.8 mph 38.0 mph N/A   Overcast
6:55 AM 32.9 °F 20.7 °F 26.4 °F 77% 29.66 in 10.0 mi WSW 21.9 mph 28.8 mph N/A   Overcast
7:15 AM 32.4 °F 20.3 °F 26.6 °F 79% 29.68 in 10.0 mi WSW 20.7 mph 29.9 mph N/A   Overcast
7:35 AM 32.0 °F 19.5 °F 26.6 °F 80% 29.68 in 10.0 mi WSW 21.9 mph 35.7 mph N/A   Overcast
7:55 AM 32.2 °F 19.7 °F 25.7 °F 77% 29.69 in 10.0 mi WSW 21.9 mph 34.5 mph N/A   Overcast
8:15 AM 32.0 °F 19.2 °F 24.8 °F 75% 29.69 in 10.0 mi WSW 23.0 mph 38.0 mph N/A   Overcast
8:35 AM 32.0 °F 17.6 °F 23.9 °F 72% 29.70 in 10.0 mi WSW 29.9 mph 40.3 mph N/A   Overcast
9:15 AM 32.2 °F 18.9 °F 23.5 °F 70% 29.71 in 10.0 mi WSW 25.3 mph 39.1 mph N/A   Overcast
9:35 AM 33.1 °F 19.8 °F 23.9 °F 69% 29.71 in 10.0 mi WSW 26.5 mph 39.1 mph N/A   Overcast
9:55 AM 33.1 °F 19.8 °F 25.0 °F 72% 29.72 in 10.0 mi WSW 26.5 mph 36.8 mph N/A   Overcast
10:15 AM 32.9 °F 19.1 °F 25.5 °F 74% 29.74 in 10.0 mi West 28.8 mph 38.0 mph N/A   Overcast
10:35 AM 32.5 °F 18.1 °F 23.4 °F 69% 29.75 in 10.0 mi WSW 31.1 mph 40.3 mph N/A   Mostly Cloudy
10:55 AM 33.6 °F 19.2 °F 23.0 °F 65% 29.76 in 10.0 mi West 33.4 mph 43.7 mph N/A   Scattered Clouds
11:15 AM 33.8 °F 20.1 °F 24.4 °F 69% 29.77 in 10.0 mi WSW 29.9 mph 36.8 mph N/A   Scattered Clouds
11:35 AM 34.2 °F 20.8 °F 24.1 °F 67% 29.78 in 10.0 mi WSW 28.8 mph 38.0 mph N/A   Scattered Clouds
11:55 AM 34.9 °F 22.0 °F 24.6 °F 66% 29.78 in 10.0 mi WSW 27.6 mph 33.4 mph N/A   Scattered Clouds
12:15 PM 35.6 °F 21.9 °F 23.4 °F 61% 29.78 in 10.0 mi WSW 33.4 mph 39.1 mph N/A   Scattered Clouds
12:35 PM 35.8 °F 23.2 °F 23.4 °F 61% 29.78 in 10.0 mi WSW 27.6 mph 36.8 mph N/A   Scattered Clouds
12:55 PM 36.9 °F 24.4 °F 23.7 °F 59% 29.78 in 10.0 mi WSW 28.8 mph 34.5 mph N/A   Clear
1:15 PM 36.7 °F 25.1 °F 21.7 °F 55% 29.78 in 10.0 mi SW 24.2 mph 36.8 mph N/A   Clear
1:35 PM 37.9 °F 26.1 °F 22.3 °F 53% 29.78 in 10.0 mi SW 27.6 mph 33.4 mph N/A   Clear
1:55 PM 38.3 °F 27.6 °F 21.6 °F 51% 29.79 in 10.0 mi WSW 23.0 mph 35.7 mph N/A   Clear
2:15 PM 39.2 °F 28.0 °F 22.3 °F 51% 29.78 in 10.0 mi WSW 26.5 mph 32.2 mph N/A   Clear
2:55 PM 40.6 °F 30.9 °F 22.8 °F 49% 29.80 in 10.0 mi WSW 21.9 mph 31.1 mph N/A   Clear
3:15 PM 41.4 °F 32.1 °F 25.0 °F 52% 29.80 in 10.0 mi WSW 20.7 mph 29.9 mph N/A   Clear
3:35 PM 41.2 °F 31.1 °F 25.3 °F 53% 29.80 in 10.0 mi SW 24.2 mph 31.1 mph N/A   Clear
4:15 PM 41.0 °F 32.5 °F 25.5 °F 54% 29.81 in 10.0 mi WSW 17.3 mph 26.5 mph N/A   Clear
4:35 PM 41.0 °F 32.5 °F 25.7 °F 55% 29.82 in 10.0 mi WSW 17.3 mph - N/A   Clear
4:55 PM 40.5 °F 31.8 °F 25.9 °F 56% 29.82 in 10.0 mi SW 17.3 mph 25.3 mph N/A   Clear
5:15 PM 39.6 °F 30.3 °F 26.2 °F 59% 29.83 in 10.0 mi SW 18.4 mph - N/A   Clear
5:35 PM 39.0 °F 32.3 °F 25.5 °F 58% 29.83 in 10.0 mi SW 10.4 mph 21.9 mph N/A   Clear
5:55 PM 37.4 °F 30.8 °F 26.1 °F 64% 29.83 in 10.0 mi SSW 9.2 mph - N/A   Clear
6:15 PM 37.0 °F 31.0 °F 27.3 °F 68% 29.84 in 10.0 mi SSW 8.1 mph - N/A   Mostly Cloudy
6:35 PM 35.8 °F 30.1 °F 27.5 °F 72% 29.85 in 10.0 mi SSW 6.9 mph - N/A   Mostly Cloudy
6:55 PM 35.2 °F 27.6 °F 28.4 °F 76% 29.85 in 10.0 mi South 10.4 mph - N/A   Mostly Cloudy
7:15 PM 34.9 °F 29.0 °F 28.4 °F 77% 29.85 in 10.0 mi SSW 6.9 mph - N/A   Mostly Cloudy
7:35 PM 33.8 °F 29.6 °F 28.2 °F 80% 29.83 in 10.0 mi South 4.6 mph - N/A   Mostly Cloudy
7:55 PM 34.7 °F 29.6 °F 27.1 °F 74% 29.83 in 10.0 mi SSE 5.8 mph - N/A   Mostly Cloudy
8:15 PM 35.6 °F - 26.8 °F 70% 29.83 in 10.0 mi Calm Calm - N/A   Overcast
8:35 PM 35.8 °F 33.0 °F 26.2 °F 68% 29.83 in 10.0 mi South 3.5 mph - N/A   Overcast
8:55 PM 35.8 °F 30.9 °F 25.9 °F 67% 29.83 in 10.0 mi SSW 5.8 mph - N/A   Overcast
9:15 PM 36.9 °F 29.1 °F 25.7 °F 64% 29.84 in 10.0 mi SW 11.5 mph - N/A   Overcast
9:35 PM 38.7 °F 32.4 °F 25.3 °F 59% 29.84 in 10.0 mi SW 9.2 mph - N/A   Overcast
9:55 PM 39.2 °F 30.5 °F 25.9 °F 59% 29.83 in 10.0 mi SSW 16.1 mph 21.9 mph N/A   Overcast
10:15 PM 39.0 °F 30.3 °F 26.6 °F 61% 29.84 in 10.0 mi SSW 16.1 mph 23.0 mph N/A   Overcast
10:35 PM 37.8 °F 29.8 °F 27.0 °F 65% 29.83 in 10.0 mi SSW 12.7 mph - N/A   Overcast
10:55 PM 37.8 °F 31.3 °F 27.5 °F 67% 29.84 in 10.0 mi SW 9.2 mph - N/A   Overcast
11:15 PM 38.1 °F 29.5 °F 27.7 °F 66% 29.82 in 10.0 mi SSW 15.0 mph 20.7 mph N/A   Mostly Cloudy
11:35 PM 38.5 °F 29.9 °F 28.4 °F 67% 29.82 in 10.0 mi SW 15.0 mph - N/A   Mostly Cloudy
11:55 PM 38.5 °F 29.6 °F 28.9 °F 69% 29.83 in 10.0 mi SW 16.1 mph - N/A   Scattered Clouds